Weather in Zelenaya Roshcha

Russia / Ulyanovsk Oblast     54°09′33″N   48°01′21″E
temp.,
°C
wind,
m/s
gust,
m/s
humid.,
%
clouds,
%
prec.,
mm/h
press.,
hPa
HPBL,
m
11 may, tue
tue1101:00+15nne4667100 0.0 1019106
04:00+14ne477576 0.0 1021155
07:00+15ene3671100 0.0 1022136
10:00+20e4650100 0.0 1023486
13:00+21e464583 0.0 10251127
16:00+23e5104147 0.0 10242071
19:00+20ene245783 0.0 1025107
22:00+15sw237292 0.0 102645
12 may, wed
wed1201:00+14nnw348399 0.0 102669
04:00+14ne238033 0.0 102633
07:00+15e39738 0.0 1026287
10:00+20ese595156 0.0 1026881
13:00+19ese485898 0.0 1026532
16:00+19sse485692 0.0 1026598
19:00+17sse126493 0.0 102514
22:00+15ese336599 0.0 102549
13 may, thu
thu1301:00+15e226885 0.0 102521
04:00+13e226957 0.0 102524
07:00+14e3116854 0.0 1026282
10:00+19ese61053100 0.0 1025574
13:00+20se4752100 0.1 1025671
16:00+21e61150100 0.1 1023940
19:00+21se5115289 0.0 1022317
22:00+17se3559100 0.1 102272
14 may, fri
fri1401:00+16se115731 0.0 102211
04:00+13ese33632 0.0 102244
07:00+15sse376328 0.0 1022221
10:00+21s465149 0.0 1022461
13:00+26s68405 0.0 10221106
16:00+26s6103898 0.0 10211370
19:00+23s410515 0.0 1021274
22:00+18sse4135727 0.0 1021256
15 may, sat
sat1501:00+17s412575 0.0 1021196
04:00+15s39565 0.0 1021136
07:00+17s410585 0.0 1021218
10:00+23s69422 0.0 1020434
13:00+26s811292 0.0 10201208
16:00+27s610332 0.0 10191510
19:00+23s410464 0.0 1018253
22:00+19sse410487 0.0 1018150